FW7203 Weather Reports


time (UTC)temp
F
wind
direction
speed
knots
gust
knots
rain 1hr
in
rain 24hr
in
rain mn
in
humidity
%
barometer
mb
20260510043528 76 0 0.0 1.7 0.00 0.00 0.00 96 1012.5
20260510043046 76 0 0.0 1.7 0.00 0.00 0.00 96 1012.7
20260510042530 76 0 0.0 0.9 0.00 0.00 0.00 96 1012.7
20260510042026 76 0 0.0 0.0 0.00 0.00 0.00 96 1012.8
20260510041542 76 0 0.0 1.7 0.00 0.00 0.00 96 1012.7
20260510041026 76 0 0.0 1.7 0.00 0.00 0.00 96 1012.8
20260510040526 76 130 0.0 1.7 0.00 0.00 0.00 96 1012.8
20260510040055 76 130 0.0 1.7 0.00 0.00 0.00 96 1012.8
20260510035525 76 0 0.0 2.6 0.00 0.00 0.00 96 1012.5
20260510035025 76 115 0.9 2.6 0.00 0.00 0.00 96 1012.3
20260510034545 76 104 0.9 2.6 0.00 0.00 0.00 96 1012.3
20260510034026 76 82 0.9 1.7 0.00 0.00 0.00 96 1012.4
20260510033527 76 0 0.0 1.7 0.00 0.00 0.00 96 1012.5
20260510033048 77 69 0.0 1.7 0.00 0.00 0.00 96 1012.5
20260510032529 77 0 0.0 1.7 0.00 0.00 0.00 96 1012.5
20260510032029 77 360 0.9 1.7 0.00 0.00 0.00 96 1012.5
20260510031540 77 80 0.0 2.6 0.00 0.00 0.00 96 1012.6
20260510031026 77 75 0.0 2.6 0.00 0.00 0.00 96 1012.5
20260510030527 77 145 0.0 1.7 0.00 0.00 0.00 96 1012.4
20260510030048 77 144 0.0 1.7 0.00 0.00 0.00 95 1012.3
20260510025533 76 0 0.0 1.7 0.00 0.00 0.00 95 1012.3
20260510025026 76 0 0.0 1.7 0.00 0.00 0.00 94 1012.1
20260510024546 76 0 0.0 1.7 0.00 0.00 0.00 94 1011.9
20260510024026 77 0 0.0 1.7 0.00 0.00 0.00 94 1011.9
20260510023528 77 0 0.0 1.7 0.00 0.00 0.00 94 1012.0
20260510023041 77 0 0.0 1.7 0.00 0.00 0.00 94 1011.9
20260510022526 77 0 0.0 0.0 0.00 0.00 0.00 92 1011.7
20260510022025 76 0 0.0 0.0 0.00 0.00 0.00 91 1011.5
20260510021542 76 0 0.0 0.9 0.00 0.00 0.00 90 1011.5
20260510021025 76 0 0.0 0.9 0.00 0.00 0.00 90 1011.4
20260510020527 77 0 0.0 0.9 0.00 0.00 0.00 89 1011.2
20260510020050 77 0 0.0 1.7 0.00 0.00 0.00 89 1010.8
20260510015526 77 0 0.0 1.7 0.00 0.00 0.00 89 1010.7
20260510015029 77 0 0.0 1.7 0.00 0.00 0.00 89 1010.7
20260510014547 77 140 0.0 1.7 0.00 0.00 0.00 89 1010.6
20260510014026 78 0 0.9 3.5 0.00 0.00 0.00 89 1010.6
20260510013530 78 163 1.7 3.5 0.00 0.00 0.00 89 1010.4
20260510013043 78 155 0.9 1.7 0.00 0.00 0.00 89 1010.5
20260510012526 78 0 0.0 1.7 0.00 0.00 0.00 89 1010.4
20260510012033 78 0 0.0 2.6 0.00 0.00 0.00 88 1010.2
20260510011544 78 0 0.9 3.5 0.00 0.00 0.00 88 1009.9
20260510011025 79 152 1.7 3.5 0.00 0.00 0.00 87 1009.6
20260510010525 79 157 0.0 4.3 0.00 0.00 0.00 87 1009.7
20260510010044 79 155 0.9 6.1 0.00 0.00 0.00 86 1009.6
20260510005530 79 148 2.6 6.1 0.00 0.00 0.00 85 1009.7
20260510005030 80 154 1.7 5.2 0.00 0.00 0.00 82 1009.7
20260510004542 80 135 2.6 5.2 0.00 0.00 0.00 82 1009.7
20260510004029 80 152 1.7 6.1 0.00 0.00 0.00 80 1009.7
20260510003526 80 153 3.5 6.1 0.00 0.00 0.00 80 1009.7
20260510003051 81 148 2.6 6.1 0.00 0.00 0.00 79 1009.5
20260510002529 81 155 2.6 6.1 0.00 0.00 0.00 79 1009.6
20260510002029 82 153 2.6 7.0 0.00 0.00 0.00 78 1009.6
20260510001548 82 146 3.5 7.0 0.00 0.00 0.00 76 1009.6
20260510001032 83 154 1.7 5.2 0.00 0.00 0.00 74 1009.4
20260510000529 84 153 2.6 6.1 0.00 0.00 0.00 72 1009.3
20260509235530 85 155 2.6 4.3 0.00 0.00 0.00 63 1009.1
20260509235026 85 151 0.9 3.5 0.00 0.00 0.00 64 1009.0
20260509234554 85 150 0.0 5.2 0.00 0.00 0.00 62 1009.0
20260509234026 85 153 1.7 5.2 0.00 0.00 0.00 64 1009.0
20260509233528 85 144 0.9 4.3 0.00 0.00 0.00 65 1009.0
20260509233048 86 150 0.9 3.5 0.00 0.00 0.00 67 1009.1
20260509232530 86 157 1.7 6.1 0.00 0.00 0.00 67 1009.0
20260509232026 86 157 0.9 6.1 0.00 0.00 0.00 67 1009.1
20260509231546 86 159 1.7 5.2 0.00 0.00 0.00 64 1009.0
20260509231026 87 161 1.7 5.2 0.00 0.00 0.00 61 1009.0
20260509230528 87 158 1.7 4.3 0.00 0.00 0.00 63 1009.0
20260509230043 87 150 1.7 4.3 0.00 0.00 0.00 62 1009.1
20260509225527 87 135 0.9 3.5 0.00 0.00 0.00 67 1008.9
20260509225030 87 134 0.9 3.5 0.00 0.00 0.00 65 1008.9
20260509224540 87 134 0.0 2.6 0.00 0.00 0.00 66 1008.9
20260509224026 87 131 0.0 2.6 0.00 0.00 0.00 69 1008.7
20260509223531 87 130 0.9 2.6 0.00 0.00 0.00 75 1008.8
20260509223049 87 90 0.9 1.7 0.00 0.00 0.00 76 1008.7
20260509222525 87 67 0.0 2.6 0.00 0.00 0.00 76 1008.8
20260509222026 87 82 0.9 2.6 0.00 0.00 0.00 76 1008.6
20260509221548 87 86 0.0 2.6 0.00 0.00 0.00 76 1008.7
20260509221026 87 79 0.9 3.5 0.00 0.00 0.00 77 1008.7
20260509220525 87 0 0.9 3.5 0.00 0.00 0.00 77 1008.6
20260509220046 87 0 0.0 1.7 0.00 0.00 0.00 78 1008.6
20260509215527 87 82 0.9 1.7 0.00 0.00 0.00 78 1008.6
20260509215029 87 0 0.0 1.7 0.00 0.00 0.00 78 1008.6
20260509214541 87 98 0.9 2.6 0.00 0.00 0.00 78 1008.6
20260509214026 87 101 0.9 2.6 0.00 0.00 0.00 79 1008.6
20260509213526 87 143 0.9 2.6 0.00 0.00 0.00 78 1008.6
20260509213042 87 126 0.0 3.5 0.00 0.00 0.00 79 1008.6
20260509212526 87 0 0.0 3.5 0.00 0.00 0.00 78 1008.7
20260509212026 88 90 0.0 3.5 0.00 0.00 0.00 78 1008.7
20260509211544 88 88 0.0 2.6 0.00 0.00 0.00 79 1008.6
20260509211028 88 95 0.0 3.5 0.00 0.00 0.00 75 1008.6
20260509210525 89 0 0.0 3.5 0.00 0.00 0.00 74 1008.7
20260509210053 89 140 0.0 3.5 0.00 0.00 0.00 68 1008.6
20260509205525 88 0 0.0 1.7 0.00 0.00 0.00 67 1008.6
20260509205026 88 0 0.0 2.6 0.00 0.00 0.00 68 1008.7
20260509204553 88 115 0.9 3.5 0.00 0.00 0.00 65 1008.8
20260509204028 88 134 0.0 3.5 0.00 0.00 0.00 68 1008.8
20260509203527 88 132 1.7 3.5 0.00 0.00 0.00 65 1008.9
20260509203045 88 0 0.0 3.5 0.00 0.00 0.00 67 1009.0
20260509202526 88 129 0.9 3.5 0.00 0.00 0.00 64 1009.0
20260509202027 89 0 0.0 0.0 0.00 0.00 0.00 65 1009.0
20260509201547 88 0 0.0 0.0 0.00 0.00 0.00 64 1009.0
20260509201026 88 0 0.0 0.0 0.00 0.00 0.00 69 1009.0
20260509200532 88 0 0.0 0.0 0.00 0.00 0.00 65 1009.0
20260509200055 88 0 0.0 2.6 0.00 0.00 0.00 66 1009.0
20260509195528 88 0 0.0 3.5 0.00 0.00 0.00 66 1009.1
20260509195026 87 126 0.0 3.5 0.00 0.00 0.00 68 1009.1
20260509194547 88 144 1.7 3.5 0.00 0.00 0.00 66 1009.2
20260509194027 87 138 1.7 3.5 0.00 0.00 0.00 71 1009.3
20260509193526 87 139 1.7 3.5 0.00 0.00 0.00 67 1009.3
20260509193048 88 123 0.9 2.6 0.00 0.00 0.00 69 1009.3
20260509192526 88 87 0.0 3.5 0.00 0.00 0.00 71 1009.3
20260509192028 87 0 0.9 3.5 0.00 0.00 0.00 68 1009.3
20260509191542 87 0 0.9 3.5 0.00 0.00 0.00 71 1009.4
20260509191026 88 0 0.0 0.0 0.00 0.00 0.00 68 1009.4
20260509190526 86 0 0.0 0.0 0.00 0.00 0.00 72 1009.4
20260509190044 86 0 0.0 3.5 0.00 0.00 0.00 72 1009.5
20260509185526 86 0 0.0 3.5 0.00 0.00 0.00 72 1009.6
20260509185027 86 16 1.7 3.5 0.00 0.00 0.00 73 1009.7
20260509184555 85 21 0.0 3.5 0.00 0.00 0.00 76 1009.7
20260509184026 84 20 1.7 4.3 0.00 0.00 0.00 75 1009.8
20260509183526 84 19 2.6 4.3 0.00 0.00 0.00 76 1009.8
20260509183042 83 0 0.9 3.5 0.00 0.00 0.00 76 1010.0
20260509182526 84 19 1.7 3.5 0.00 0.00 0.00 76 1010.1
20260509182026 84 0 0.0 4.3 0.00 0.00 0.00 78 1010.2
20260509181549 83 25 1.7 4.3 0.00 0.00 0.00 82 1010.3
20260509181026 82 34 1.7 4.3 0.00 0.00 0.00 80 1010.3
20260509180526 82 5 1.7 4.3 0.00 0.00 0.00 80 1010.3
20260509180042 84 32 0.9 3.5 0.00 0.00 0.00 81 1010.4
20260509175526 83 0 0.0 0.0 0.00 0.00 0.00 82 1010.5
20260509175026 82 0 0.0 1.7 0.00 0.00 0.00 87 1010.7
20260509174542 81 0 0.0 1.7 0.00 0.00 0.00 87 1010.9
20260509174027 81 0 0.0 0.0 0.00 0.00 0.00 86 1010.7
20260509173529 82 0 0.0 0.0 0.00 0.00 0.00 85 1010.8
20260509173056 82 0 0.0 0.0 0.00 0.00 0.00 86 1010.8
20260509172526 82 0 0.0 0.0 0.00 0.00 0.00 87 1010.9
20260509172027 82 0 0.0 0.0 0.00 0.00 0.00 86 1010.9
20260509171544 82 0 0.0 0.0 0.00 0.00 0.00 87 1011.0
20260509171026 82 0 0.0 0.0 0.00 0.00 0.00 87 1010.9
20260509170526 82 0 0.0 1.7 0.00 0.00 0.00 87 1011.0
20260509170041 81 0 0.0 1.7 0.00 0.00 0.00 89 1011.0
20260509165530 81 0 0.0 2.6 0.00 0.00 0.00 90 1011.0
20260509165026 81 0 0.0 2.6 0.00 0.00 0.00 91 1011.1
20260509164540 81 152 0.0 1.7 0.00 0.00 0.00 90 1011.0
20260509164025 80 0 0.0 4.3 0.00 0.00 0.00 91 1011.3
20260509163531 80 0 0.9 4.3 0.00 0.00 0.00 91 1011.2
20260509163047 80 147 0.9 4.3 0.00 0.00 0.00 91 1011.1
20260509162526 80 143 1.7 4.3 0.00 0.00 0.00 91 1011.1
20260509162026 81 142 0.0 2.6 0.00 0.00 0.00 90 1011.0
20260509161545 81 0 0.0 6.1 0.00 0.00 0.00 91 1010.9
20260509161026 80 0 0.9 6.1 0.00 0.00 0.00 92 1011.1
20260509160527 80 155 0.0 5.2 0.00 0.00 0.00 91 1010.7
20260509160047 80 148 0.9 5.2 0.00 0.00 0.00 93 1010.6
20260509155526 79 160 1.7 5.2 0.00 0.00 0.00 94 1010.7
20260509155026 79 159 1.7 4.3 0.00 0.00 0.00 94 1010.8
20260509154544 78 0 0.9 6.1 0.00 0.00 0.00 95 1010.5
20260509154026 78 160 1.7 6.1 0.00 0.00 0.00 96 1010.8
20260509153525 77 160 2.6 5.2 0.00 0.00 0.00 97 1010.8
20260509153052 77 86 0.0 1.7 0.00 0.00 0.00 98 1011.0
20260509152526 77 0 0.0 2.6 0.00 0.00 0.00 98 1011.1
20260509152036 77 0 0.0 2.6 0.00 0.00 0.00 98 1011.2
20260509151541 76 58 0.0 2.6 0.00 0.00 0.00 99 1010.5
20260509151027 76 0 0.0 0.0 0.00 0.00 0.00 99 1009.9
20260509150526 76 0 0.0 0.0 0.00 0.00 0.00 99 1010.5
20260509150050 76 0 0.0 0.0 0.00 0.00 0.00 99 1010.9
20260509145527 76 0 0.0 0.0 0.00 0.00 0.00 100 1011.1
20260509145026 76 0 0.0 0.0 0.00 0.00 0.00 100 1010.9
20260509144607 76 0 0.0 0.0 0.00 0.00 0.00 100 1010.9
20260509144029 76 0 0.0 0.0 0.00 0.00 0.00 100 1010.9
20260509143526 76 0 0.0 0.0 0.00 0.00 0.00 100 1011.1
20260509143058 76 0 0.0 0.0 0.00 0.00 0.00 100 1011.2
20260509142526 76 0 0.0 0.0 0.00 0.00 0.00 100 1011.1
20260509142026 76 0 0.0 0.0 0.00 0.00 0.00 100 1011.0
20260509141542 76 0 0.0 0.0 0.00 0.00 0.00 100 1011.1
20260509141026 76 0 0.0 0.0 0.00 0.00 0.00 100 1011.1
20260509140525 76 0 0.0 0.0 0.00 0.00 0.00 100 1011.2
20260509140057 76 0 0.0 0.0 0.00 0.00 0.00 100 1011.3
20260509135526 76 0 0.0 0.0 0.00 0.00 0.00 100 1010.8
20260509135030 76 0 0.0 0.0 0.00 0.00 0.00 100 1010.6
20260509134601 76 0 0.0 0.9 0.00 0.00 0.00 100 1010.4
20260509134026 76 0 0.0 1.7 0.00 0.00 0.00 100 1010.6
20260509133527 76 0 0.0 1.7 0.00 0.00 0.00 100 1011.0
20260509133047 76 0 0.0 0.0 0.00 0.00 0.00 100 1011.0
20260509132527 75 0 0.0 0.0 0.00 0.00 0.00 100 1011.0
20260509132027 75 0 0.0 0.0 0.00 0.00 0.00 100 1010.9
20260509131548 75 0 0.0 0.0 0.00 0.00 0.00 100 1010.7
20260509131026 75 0 0.0 0.0 0.00 0.00 0.00 100 1010.5
20260509130532 75 0 0.0 0.0 0.00 0.00 0.00 100 1010.6
20260509130056 75 0 0.0 0.0 0.00 0.00 0.00 100 1010.8
20260509125530 74 0 0.0 0.0 0.00 0.00 0.00 100 1011.0
20260509125030 74 0 0.0 0.0 0.00 0.00 0.00 100 1011.0
20260509124544 74 0 0.0 0.0 0.00 0.00 0.00 100 1011.0
20260509124029 74 0 0.0 0.0 0.00 0.00 0.00 100 1010.9
20260509123529 74 0 0.0 0.0 0.00 0.00 0.00 100 1010.9
20260509123053 74 0 0.0 0.0 0.00 0.00 0.00 100 1010.8
20260509122529 74 0 0.0 0.0 0.00 0.00 0.00 100 1010.6
20260509122028 74 0 0.0 0.0 0.00 0.00 0.00 100 1010.7
20260509121601 74 0 0.0 0.0 0.00 0.00 0.00 100 1010.9
20260509121029 74 0 0.0 0.0 0.00 0.00 0.00 100 1010.9
20260509120534 74 0 0.0 0.0 0.00 0.00 0.00 100 1011.1
20260509120048 74 0 0.0 0.0 0.00 0.00 0.00 100 1011.0
20260509115528 74 0 0.0 0.0 0.00 0.00 0.00 100 1010.9
20260509115027 74 0 0.0 0.0 0.00 0.00 0.00 100 1010.8
20260509114542 74 0 0.0 0.0 0.00 0.00 0.00 100 1010.7
20260509114027 74 0 0.0 0.0 0.00 0.00 0.00 100 1010.8
20260509113527 74 0 0.0 0.0 0.00 0.00 0.00 100 1010.8
20260509113041 74 0 0.0 0.0 0.00 0.00 0.00 100 1010.6
20260509112526 73 0 0.0 0.0 0.00 0.00 0.00 100 1010.5
20260509112030 73 0 0.0 0.0 0.00 0.00 0.00 100 1010.6
20260509111556 73 0 0.0 0.0 0.00 0.00 0.00 100 1010.7
20260509111026 73 0 0.0 0.0 0.00 0.00 0.00 100 1010.5
20260509110526 73 0 0.0 0.0 0.00 0.00 0.00 100 1010.3
20260509110040 73 0 0.0 0.0 0.00 0.00 0.00 100 1010.1
20260509105526 74 0 0.0 0.0 0.00 0.00 0.00 100 1010.2
20260509105029 73 0 0.0 0.0 0.00 0.00 0.00 100 1010.1
20260509104547 74 0 0.0 0.0 0.00 0.00 0.00 100 1010.3
20260509104028 74 0 0.0 0.0 0.00 0.00 0.00 100 1010.0
20260509103527 74 0 0.0 0.0 0.00 0.00 0.00 100 1010.1
20260509103053 73 0 0.0 0.0 0.00 0.00 0.00 100 1010.3
20260509102530 73 0 0.0 0.0 0.00 0.00 0.00 100 1010.2
20260509102027 73 0 0.0 0.0 0.00 0.00 0.00 100 1010.2
20260509101614 73 0 0.0 0.0 0.00 0.00 0.00 100 1010.0
20260509101031 73 0 0.0 0.0 0.00 0.00 0.00 100 1009.9
20260509100528 73 0 0.0 0.0 0.00 0.00 0.00 100 1010.1
20260509100044 73 0 0.0 0.0 0.00 0.00 0.00 100 1010.0
20260509095528 73 0 0.0 0.0 0.00 0.00 0.00 100 1010.1
20260509095032 73 0 0.0 0.0 0.00 0.00 0.00 100 1010.1
20260509094542 73 0 0.0 0.0 0.00 0.00 0.00 100 1010.1
20260509094026 73 0 0.0 0.0 0.00 0.00 0.00 100 1010.1
20260509093526 73 0 0.0 0.0 0.00 0.00 0.00 100 1010.0
20260509093042 73 0 0.0 0.0 0.00 0.00 0.00 100 1009.8
20260509092526 73 0 0.0 0.0 0.00 0.00 0.00 100 1009.8
20260509092031 73 0 0.0 0.0 0.00 0.00 0.00 100 1009.7
20260509091547 72 0 0.0 0.0 0.00 0.00 0.00 100 1009.8
20260509091027 72 0 0.0 0.0 0.00 0.00 0.00 100 1009.8
20260509090527 72 0 0.0 0.0 0.00 0.00 0.00 100 1009.7
20260509090045 72 0 0.0 0.0 0.00 0.00 0.00 100 1009.5
20260509085528 72 0 0.0 0.0 0.00 0.00 0.00 100 1009.5
20260509085028 72 0 0.0 0.0 0.00 0.00 0.00 99 1009.5
20260509084547 72 0 0.0 0.0 0.00 0.00 0.00 99 1009.6
20260509084030 71 0 0.0 0.0 0.00 0.00 0.00 99 1009.7
20260509083529 72 0 0.0 0.0 0.00 0.00 0.00 99 1009.9
20260509083044 72 0 0.0 0.0 0.00 0.00 0.00 99 1010.0
20260509082528 72 0 0.0 0.0 0.00 0.00 0.00 99 1010.0
20260509082026 72 0 0.0 0.0 0.00 0.00 0.00 99 1010.1
20260509081544 72 0 0.0 0.0 0.00 0.00 0.00 99 1010.1
20260509081028 72 0 0.0 0.0 0.00 0.00 0.00 99 1010.0
20260509080527 72 0 0.0 0.0 0.00 0.00 0.00 99 1010.1
20260509080042 72 0 0.0 0.0 0.00 0.00 0.00 99 1010.2
20260509075526 72 0 0.0 0.0 0.00 0.00 0.00 99 1010.4
20260509075026 72 0 0.0 0.0 0.00 0.00 0.00 99 1010.5
20260509074547 72 0 0.0 0.0 0.00 0.00 0.00 99 1010.4
20260509074025 72 0 0.0 0.0 0.00 0.00 0.00 99 1010.3
20260509073526 72 0 0.0 0.0 0.00 0.00 0.00 99 1010.4
20260509073055 72 0 0.0 0.0 0.00 0.00 0.00 99 1010.4
20260509072527 72 0 0.0 0.0 0.00 0.00 0.00 99 1010.5
20260509072029 72 0 0.0 0.0 0.00 0.00 0.00 99 1010.5
20260509071550 72 0 0.0 0.0 0.00 0.00 0.00 99 1010.5
20260509071029 72 0 0.0 0.0 0.00 0.00 0.00 99 1010.3
20260509070529 72 0 0.0 0.0 0.00 0.00 0.00 99 1010.3
20260509070046 72 0 0.0 0.0 0.00 0.00 0.00 99 1010.3
20260509065525 72 0 0.0 0.0 0.00 0.00 0.00 99 1010.2
20260509065029 72 0 0.0 0.0 0.00 0.00 0.00 99 1010.3
20260509064546 72 0 0.0 0.0 0.00 0.00 0.00 99 1010.4
20260509064031 73 0 0.0 0.0 0.00 0.00 0.00 99 1010.5
20260509063529 73 0 0.0 0.0 0.00 0.00 0.00 99 1010.5
20260509063043 73 0 0.0 0.0 0.00 0.00 0.00 99 1010.6
20260509062529 73 0 0.0 0.0 0.00 0.00 0.00 99 1010.6
20260509062029 73 0 0.0 0.0 0.00 0.00 0.00 99 1010.6
20260509061547 73 0 0.0 0.0 0.00 0.00 0.00 99 1010.6
20260509061035 73 0 0.0 0.0 0.00 0.00 0.00 99 1010.6
20260509060526 73 0 0.0 0.0 0.00 0.00 0.00 99 1010.6
20260509060048 73 0 0.0 0.0 0.00 0.00 0.00 99 1010.6
20260509055529 73 0 0.0 0.0 0.00 0.00 0.00 99 1010.7
20260509055028 73 0 0.0 0.0 0.00 0.00 0.00 99 1010.5
20260509054557 73 0 0.0 0.0 0.00 0.00 0.00 99 1010.6
20260509054026 73 0 0.0 0.0 0.00 0.00 0.00 99 1010.7
20260509053529 73 0 0.0 0.0 0.00 0.00 0.00 99 1010.6
20260509053043 73 0 0.0 0.0 0.00 0.00 0.00 99 1010.8
20260509052526 73 0 0.0 0.0 0.00 0.00 0.00 99 1010.8
20260509052028 74 0 0.0 0.0 0.00 0.00 0.00 99 1010.7
20260509051542 74 0 0.0 0.0 0.00 0.00 0.00 99 1010.7
20260509051028 73 0 0.0 0.0 0.00 0.00 0.00 99 1010.8
20260509050529 73 0 0.0 0.0 0.00 0.00 0.00 99 1010.9
20260509050043 74 0 0.0 0.0 0.00 0.00 0.00 99 1010.9
20260509045527 73 0 0.0 0.0 0.00 0.00 0.00 99 1011.1
20260509045027 73 0 0.0 0.0 0.00 0.00 0.00 99 1011.1
20260509044547 74 0 0.0 0.0 0.00 0.00 0.00 99 1011.2
20260509044027 74 0 0.0 0.0 0.00 0.00 0.00 99 1011.1